Location: Arcones
(41.1182°N, 3.7238°W)
Time: 00:08:32
(UTC+00:00)

Cosmos 2263 Rocket - Pass Details

Date: 22 March 2026
Orbit: 823 x 847 km, 71.0° (Epoch: 13 April)

Event Time Altitude Azimuth Distance (km) Brightness Sun altitude
Rises 21:48:06 0° 336° (NNW) 3,390 6.2 -35.4°
Reaches altitude 10° 21:50:33 10° 336° (NNW) 2,449 5.2 -35.8°
Enters shadow 21:53:28 32° 337° (NNW) 1,395 3.7 -36.2°
